Location: Alta
(39.2070°N, 120.8111°W)
Time: 02:33:54
(UTC+00:00)

ITAMSAT 1 - Pass Details

Date: 11 April 2023
Orbit: 782 x 797 km, 98.8° (Epoch: 29 May)

Event Time Altitude Azimuth Distance (km) Brightness Sun altitude
Exits shadow 03:27:40 - 157° (SSE) 3,132 10.4 -10.5°
Reaches altitude 10° 03:29:37 10° 155° (SSE) 2,355 9.7 -10.9°
Maximum altitude 03:34:46 67° 73° (ENE) 864 7.7 -11.8°
Drops below altitude 10° 03:39:58 10° 352° (N) 2,375 10.5 -12.7°
Sets 03:42:19 0° 350° (N) 3,309 11.4 -13.1°
